Location: Ash Swamp
(41.5170°N, 74.6157°W)
Time: 17:07:22
(UTC+00:00)

Cosmos 1295 Rocket - Pass Details

Date: 14 July 2020
Orbit: 943 x 994 km, 82.9° (Epoch: 04 August)

Event Time Altitude Azimuth Distance (km) Brightness Sun altitude
Exits shadow 02:54:49 28° 185° (S) 1,713 5.4 -20.1°
Maximum altitude 02:58:17 89° 107° (ESE) 954 4.4 -20.4°
Drops below altitude 10° 03:04:25 10° 8° (N) 2,672 7.5 -21.0°
Sets 03:06:54 0° 8° (N) 3,620 8.3 -21.2°
